| time (UTC) | temp F | wind direction | speed MPH | gust MPH | rain 1hr in | rain 24hr in | rain mn in | humidity % | barometer mb |
| 20260504140319 | 51 | 270 | 7.0 | 10.0 | 0.00 | 0.00 | 0.00 | 66 | 1007.1 |
| 20260504130312 | 49 | 279 | 10.0 | 17.0 | 0.00 | 0.00 | 0.00 | 66 | 1008.2 |
| 20260504120316 | 47 | 288 | 6.0 | 13.0 | 0.00 | 0.00 | 0.00 | 64 | 1008.4 |
| 20260504040320 | 36 | 272 | 4.0 | 6.0 | 0.00 | 0.00 | 0.00 | 73 | 1007.9 |
| 20260504040023 | 35 | 280 | 2.0 | 4.0 | 0.00 | 0.00 | 0.00 | 73 | 1008.4 |
| 20260504035320 | 36 | 279 | 3.0 | 4.0 | 0.00 | 0.00 | 0.00 | 73 | 1007.8 |
| 20260504034559 | 35 | 272 | 2.0 | 5.0 | 0.00 | 0.00 | 0.00 | 73 | 1008.3 |
| 20260504034315 | 36 | 271 | 2.0 | 7.0 | 0.00 | 0.00 | 0.00 | 73 | 1007.7 |
| 20260504033338 | 36 | 268 | 4.0 | 7.0 | 0.00 | 0.00 | 0.00 | 73 | 1007.7 |
| 20260504033012 | 35 | 267 | 5.0 | 7.0 | 0.00 | 0.00 | 0.00 | 73 | 1008.3 |
| 20260504032352 | 36 | 269 | 5.0 | 8.0 | 0.00 | 0.00 | 0.00 | 71 | 1007.7 |
| 20260504031521 | 37 | 261 | 4.0 | 8.0 | 0.00 | 0.00 | 0.00 | 70 | 1008.2 |
| 20260504031331 | 37 | 273 | 5.0 | 8.0 | 0.00 | 0.00 | 0.00 | 70 | 1007.6 |
| 20260504030354 | 37 | 279 | 6.0 | 9.0 | 0.00 | 0.00 | 0.00 | 71 | 1007.6 |
| 20260504030035 | 36 | 270 | 6.0 | 10.0 | 0.00 | 0.00 | 0.00 | 71 | 1008.2 |
| 20260504025326 | 36 | 281 | 5.0 | 8.0 | 0.00 | 0.00 | 0.00 | 73 | 1007.6 |
| 20260504024545 | 36 | 279 | 3.0 | 7.0 | 0.00 | 0.00 | 0.00 | 71 | 1008.1 |
| 20260504024317 | 37 | 287 | 3.0 | 4.0 | 0.00 | 0.00 | 0.00 | 70 | 1007.6 |
| 20260504023315 | 37 | 273 | 4.0 | 7.0 | 0.00 | 0.00 | 0.00 | 69 | 1007.8 |
| 20260504023104 | 37 | 283 | 3.0 | 7.0 | 0.00 | 0.00 | 0.00 | 69 | 1008.3 |
| 20260504022323 | 38 | 283 | 5.0 | 8.0 | 0.00 | 0.00 | 0.00 | 68 | 1007.9 |
| 20260504021522 | 38 | 283 | 5.0 | 8.0 | 0.00 | 0.00 | 0.00 | 68 | 1008.3 |
| 20260504021323 | 38 | 284 | 6.0 | 8.0 | 0.00 | 0.00 | 0.00 | 67 | 1007.9 |
| 20260504020318 | 40 | 275 | 4.0 | 8.0 | 0.00 | 0.00 | 0.00 | 64 | 1007.7 |
| 20260504020040 | 40 | 292 | 5.0 | 8.0 | 0.00 | 0.02 | 0.00 | 64 | 1008.2 |
| 20260504015337 | 41 | 277 | 5.0 | 10.0 | 0.00 | 0.02 | 0.00 | 63 | 1007.6 |
| 20260504014524 | 40 | 310 | 5.0 | 10.0 | 0.00 | 0.02 | 0.00 | 62 | 1008.1 |
| 20260504014332 | 41 | 313 | 4.0 | 10.0 | 0.00 | 0.02 | 0.00 | 62 | 1007.7 |
| 20260504013325 | 41 | 341 | 5.0 | 11.0 | 0.00 | 0.02 | 0.00 | 61 | 1007.5 |
| 20260504013026 | 41 | 332 | 7.0 | 11.0 | 0.00 | 0.02 | 0.00 | 61 | 1008.1 |
| 20260504012326 | 41 | 338 | 5.0 | 11.0 | 0.00 | 0.02 | 0.00 | 61 | 1007.5 |
| 20260504011556 | 41 | 306 | 5.0 | 11.0 | 0.00 | 0.02 | 0.00 | 61 | 1008.0 |
| 20260504011323 | 41 | 331 | 5.0 | 10.0 | 0.00 | 0.02 | 0.00 | 60 | 1007.4 |
| 20260504010323 | 42 | 317 | 4.0 | 13.0 | 0.00 | 0.02 | 0.00 | 61 | 1007.3 |
| 20260504010110 | 41 | 315 | 7.0 | 13.0 | 0.00 | 0.02 | 0.00 | 60 | 1007.8 |
| 20260504005318 | 42 | 336 | 4.0 | 10.0 | 0.00 | 0.02 | 0.00 | 60 | 1007.1 |
| 20260504004522 | 42 | 305 | 5.0 | 9.0 | 0.00 | 0.02 | 0.00 | 59 | 1007.5 |
| 20260504004320 | 42 | 281 | 5.0 | 9.0 | 0.00 | 0.02 | 0.00 | 58 | 1007.0 |
| 20260504003317 | 43 | 335 | 9.0 | 17.0 | 0.00 | 0.02 | 0.00 | 57 | 1006.8 |
| 20260504003043 | 42 | 342 | 7.0 | 17.0 | 0.00 | 0.02 | 0.00 | 57 | 1007.3 |
| 20260504002337 | 43 | 351 | 10.0 | 21.0 | 0.00 | 0.02 | 0.00 | 56 | 1006.7 |
| 20260504001512 | 43 | 344 | 12.0 | 30.0 | 0.00 | 0.02 | 0.00 | 55 | 1007.1 |
| 20260504001331 | 43 | 360 | 10.0 | 30.0 | 0.00 | 0.02 | 0.00 | 55 | 1006.5 |
| 20260504000324 | 44 | 311 | 10.0 | 16.0 | 0.00 | 0.02 | 0.00 | 55 | 1006.3 |
| 20260504000028 | 43 | 332 | 10.0 | 16.0 | 0.00 | 0.02 | 0.00 | 55 | 1006.8 |
| 20260503235325 | 44 | 340 | 9.0 | 14.0 | 0.00 | 0.02 | 0.00 | 54 | 1006.2 |
| 20260503234559 | 43 | 320 | 7.0 | 18.0 | 0.00 | 0.02 | 0.00 | 54 | 1006.6 |
| 20260503234319 | 44 | 343 | 7.0 | 19.0 | 0.00 | 0.02 | 0.00 | 53 | 1006.1 |
| 20260503233313 | 44 | 307 | 6.0 | 21.0 | 0.00 | 0.02 | 0.00 | 53 | 1005.9 |
| 20260503233013 | 44 | 32 | 11.0 | 21.0 | 0.00 | 0.02 | 0.00 | 52 | 1006.3 |
| 20260503232331 | 45 | 5 | 13.0 | 23.0 | 0.00 | 0.02 | 0.00 | 51 | 1005.8 |
| 20260503231542 | 44 | 343 | 7.0 | 20.0 | 0.00 | 0.02 | 0.00 | 52 | 1006.2 |
| 20260503231323 | 45 | 323 | 10.0 | 23.0 | 0.00 | 0.02 | 0.00 | 51 | 1005.7 |
| 20260503230345 | 45 | 342 | 16.0 | 22.0 | 0.00 | 0.02 | 0.00 | 50 | 1005.6 |
| 20260503230040 | 45 | 325 | 10.0 | 21.0 | 0.00 | 0.02 | 0.00 | 51 | 1006.1 |
| 20260503225317 | 46 | 339 | 10.0 | 24.0 | 0.00 | 0.02 | 0.00 | 49 | 1005.5 |
| 20260503224507 | 46 | 349 | 12.0 | 20.0 | 0.00 | 0.02 | 0.00 | 47 | 1005.9 |
| 20260503224318 | 47 | 333 | 10.0 | 20.0 | 0.00 | 0.02 | 0.00 | 48 | 1005.3 |
| 20260503223330 | 47 | 360 | 11.0 | 31.0 | 0.00 | 0.02 | 0.00 | 48 | 1005.4 |
| 20260503223025 | 47 | 355 | 14.0 | 31.0 | 0.00 | 0.02 | 0.00 | 47 | 1005.7 |
| 20260503222350 | 47 | 355 | 11.0 | 24.0 | 0.00 | 0.02 | 0.00 | 47 | 1005.1 |